This demonstration page uses our WeatherBlox Daily Observations layout. Learn more.

Left ArrowRight Arrow

33.98154, -81.23621

Hourly Observations for November 29, 2022

Temp ( °F °C ) Dew Point ( °F °C ) Humidity (%) Winds ( mph kmh ) Pressure ( in mb ) Visibility ( mi km ) Precip ( " mm )
12:56 am 00:56 Clear 45 7.2 43 6.1 93 93 Calm 30.10 1019 10 16 0.00 0.00
1:56 am 01:56 Clear 42 5.6 40 4.4 92 92 Calm 30.09 1019 10 16 0.00 0.00
2:18 am 02:18 Mostly Clear 45 7.2 43 6.1 93 93 Calm 30.11 1020 10 16 0.00 0.00
2:56 am 02:56 Clear 43 6.1 41 5 93 93 Calm 30.11 1020 10 16 0.00 0.00
3:56 am 03:56 Clear 40 4.4 38 3.3 93 93 SW 3 6 30.12 1020 10 16 0.00 0.00
4:56 am 04:56 Clear 41 5 39 3.9 93 93 Calm 30.13 1020 10 16 0.00 0.00
5:56 am 05:56 Clear 40 4.4 38 3.3 93 93 Calm 30.14 1021 10 16 0.00 0.00
6:56 am 06:56 Clear 39 3.9 37 2.8 93 93 Calm 30.18 1022 10 16 0.00 0.00
7:56 am 07:56 Sunny 40 4.4 38 3.3 93 93 Calm 30.21 1023 10 16 0.00 0.00
8:56 am 08:56 Sunny 47 8.3 43 6.1 86 86 Calm 30.22 1024 10 16 0.00 0.00
9:56 am 09:56 Sunny 55 12.8 44 6.7 66 66 ESE 7 11 30.23 1024 10 16 0.00 0.00
10:56 am 10:56 Sunny 58 14.4 45 7.2 62 62 SE 7 11 30.23 1024 10 16 0.00 0.00
11:56 am 11:56 Sunny 63 17.2 47 8.3 56 56 ESE 5 7 30.20 1023 10 16 0.00 0.00
12:56 pm 12:56 Sunny 65 18.3 48 8.9 54 54 Calm 30.17 1022 10 16 0.00 0.00
1:56 pm 13:56 Sunny 68 20 48 8.9 49 49 undefined N/A 30.14 1021 10 16 0.00 0.00
2:56 pm 14:56 Sunny 69 20.6 47 8.3 45 45 SE 9 15 30.13 1020 10 16 0.00 0.00
3:56 pm 15:56 Sunny 68 20 47 8.3 47 47 ESE 8 13 30.11 1020 10 16 0.00 0.00
4:56 pm 16:56 Sunny 65 18.3 47 8.3 52 52 SE 7 11 30.13 1020 10 16 0.00 0.00
5:56 pm 17:56 Mostly Clear 61 16.1 47 8.3 60 60 E 5 7 30.12 1020 10 16 0.00 0.00
6:56 pm 18:56 Clear 58 14.4 48 8.9 70 70 E 3 6 30.12 1020 10 16 0.00 0.00
7:56 pm 19:56 Clear 55 12.8 49 9.4 80 80 E 3 6 30.11 1020 10 16 0.00 0.00
8:56 pm 20:56 Partly Cloudy 52 11.1 47 8.3 83 83 Calm 30.12 1020 10 16 0.00 0.00
9:56 pm 21:56 Cloudy 55 12.8 49 9.4 80 80 NE 5 7 30.13 1020 10 16 0.00 0.00
10:56 pm 22:56 Cloudy 55 12.8 49 9.4 80 80 SE 6 9 30.10 1019 10 16 0.00 0.00
11:56 pm 23:56 Mostly Cloudy 56 13.3 50 10 80 80 NE 6 9 30.09 1019 10 16 0.00 0.00

Powered by AerisWeather